Location: Monrovia
(34.7865°N, 86.7139°W)
Time: 22:01:49
(UTC+00:00)

IRS-1C - Pass Details

Date: 14 July 2020
Orbit: 815 x 817 km, 98.8° (Epoch: 08 August)

Event Time Altitude Azimuth Distance (km) Brightness Sun altitude
Rises 07:59:10 0° 18° (NNE) 3,347 8.5 -26.1°
Reaches altitude 10° 08:01:34 10° 22° (NNE) 2,411 7.6 -25.9°
Maximum altitude 08:06:48 58° 101° (E) 950 4.5 -25.3°
Enters shadow 08:08:02 46° 149° (SSE) 1,080 4.5 -25.1°
